Terug naar catalogus

STARLINK-37769

ActiefCommunicatieVLEO
NORAD 69834·PAYLOAD·🇺🇸 United States

Gelanceerd Jul 5, 2026 vanaf Cape Canaveral Space Force Station

Loading…

Volgende Passages (komende 24 uur)

TLE

VersSource: CelesTrak SupGP

Epoch: Sep 14, 2026, 23:21 UTC

1 69834C 26154R   26257.97340278 -.00007417  00000+0 -21923-3 0  2577
2 69834  53.1587 357.4471 0001067  81.6714 193.3048 15.34381802    17

Volg STARLINK-37769 in realtime met AllMySat

Download on the App Store